Regional Weather Roundup
Issued by NWS

Home | Current Version | Previous Version | Graphics & Text | Print | Product List | Glossary On
Versions: 1 2 3 4 5 6 7 8 9 10 11 12 13 14 15 16 17 18 19 20 21 22 23 24 25 26 27 28 29 30 31 32 33 34 35 36 37 38 39 40 41 42 43 44 45 46 47 48 49
000
ASUS45 KCYS 280210
RWRWY

WYOMING REGIONAL WEATHER ROUNDUP
NATIONAL WEATHER SERVICE CHEYENNE WY
700 PM MST FRI FEB 27 2015

NOTE:  "FAIR" INDICATES FEW OR NO CLOUDS BELOW 12,000 FEET
WITH NO SIGNIFICANT WEATHER AND/OR OBSTRUCTIONS TO VISIBILITY.

WYZ001-280300-
YELLOWSTONE NATIONAL PARK

CITY           SKY/WX    TMP DP  RH WIND       PRES   REMARKS
LK YELLOWSTONE   N/A     12   7  80 CALM      29.72R
W YELLOWSTONE  NOT AVBL

$$
WYZ002>013-054>058-071-098>099-280300-
NORTHERN WYOMING

CITY           SKY/WX    TMP DP  RH WIND       PRES   REMARKS
JACKSON        NOT AVBL
CODY           FAIR      19   9  63 NW3       29.87R
GREYBULL       CLOUDY    25   8  48 CALM      29.91R
WORLAND        CLOUDY    25  13  60 NE3       29.89R
SHERIDAN       MOCLDY    13   0  56 S5        29.94R WCI   5
BUFFALO        FAIR      13   2  61 NW8       29.87R WCI   2
GILLETTE       FAIR      11   6  81 S5        29.89R WCI   3
HULETT         FAIR      18   9  68 SW3       29.92S
NEWCASTLE      MOCLDY    19  10  68 SE13G18   29.95R WCI   7

$$
WYZ014>020-022>026-101>103-280300-
CENTRAL WYOMING

CITY           SKY/WX    TMP DP  RH WIND       PRES   REMARKS
BIG PINEY      CLOUDY    18  12  77 NE10      29.74R WCI   6
PINEDALE       CLOUDY    12  10  92 W5        29.75R WCI   4
DUBOIS         CLOUDY    12   9  85 S3        29.73R
LANDER         FAIR       8   1  73 W8        29.83R WCI  -4
RIVERTON       CLOUDY    10   3  73 SW6       29.84R WCI   0
CASPER         FAIR      20  12  71 E9        29.82R WCI   9
DOUGLAS        FAIR      16   9  74 SE8       29.87R WCI   5

$$
WYZ021-027>030-104>119-280300-
SOUTHERN WYOMING

CITY           SKY/WX    TMP DP  RH WIND       PRES   REMARKS
EVANSTON       FAIR      27  17  66 CALM      29.69R
FORT BRIDGER   LGT SNOW  25  25  98 S7        29.74R WCI  18
ROCK SPRINGS   FAIR      24  15  68 SE8       29.72R WCI  15
DIXON          FAIR      24  15  68 CALM      29.78R
RAWLINS        FAIR      20   6  55 CALM      29.74R
SARATOGA       FAIR      19  10  68 S10       29.74R WCI   8
LARAMIE        FAIR       8   1  73 S13       29.75R WCI  -8
CHEYENNE       LGT SNOW  11   5  77 SW15      29.85R WCI  -5
TORRINGTON     FAIR      17   7  64 SE16      29.95R WCI   2
PINE BLUFFS    CLOUDY    14   7  73 S15       29.95R WCI  -1

$$



USA.gov is the U.S. government's official web portal to all federal, state and local government web resources and services.